Location: Unspecified
(0.0000°N, 0.0000°E)
Time: 22:51:23
(UTC+02:00)

Tiangong 1 - Visible Passes

Search period start: 29 July 2014 00:00
Search period end: 08 August 2014 00:00
Orbit: 372 x 379 km, 42.8° (Epoch: 29 July)

Date Brightness Start Highest point End Pass type
(mag) Time Alt. Az. Time Alt. Az. Time Alt. Az.
29 Jul 1.0 20:57:24 10° NW 21:00:27 69° NE 21:02:06 25° SE visible
30 Jul 3.6 21:32:30 10° W 21:34:19 15° SW 21:35:02 14° SSW visible
31 Jul 3.8 07:25:16 10° SSE 07:26:40 12° SE 07:28:03 10° ESE visible
31 Jul 2.0 20:28:48 10° WNW 20:31:45 43° SW 20:34:43 10° SSE visible
02 Aug 2.8 06:56:19 17° S 06:57:54 26° SE 07:00:33 10° ENE visible
03 Aug 2.0 07:29:11 12° WSW 07:31:38 32° NW 07:34:26 10° NNE visible
04 Aug 2.4 06:29:56 39° ENE 06:29:56 39° ENE 06:32:02 10° NE visible
05 Aug 3.1 07:02:41 15° NW 07:02:41 15° NW 07:04:31 10° N visible
